Location: Pedimozza
(42.0500°N, 9.3500°E)
Time: 17:13:22
(UTC+00:00)

Spot 2 Rocket - Pass Details

Date: 19 August 2019
Orbit: 756 x 773 km, 98.6° (Epoch: 17 September)

Event Time Altitude Azimuth Distance (km) Brightness Sun altitude
Exits shadow 20:36:31 30° 198° (SSW) 1,356 4.5 -22.8°
Maximum altitude 20:38:48 53° 260° (W) 948 4.1 -23.1°
Drops below altitude 10° 20:43:47 10° 337° (NNW) 2,315 6.9 -23.8°
Sets 20:46:09 0° 342° (NNW) 3,243 7.8 -24.1°
